Eugene, OR

12:35 PM PST on November 20, 2019 (GMT -0800)
Mahlon Sweet

Weather History for KEUG - September, 2019

Change the Weather History Date:

Tuesday, September 24, 2019

  Actual Average Record
Temperature  
Mean Temperature 69 °F 60 °F  
Max Temperature 77 °F 74 °F 96 °F (1974)
Min Temperature 60 °F 45 °F 30 °F (1926)
Degree Days  
Heating Degree Days 0 6  
Month to date heating degree days 47 81  
Since 1 July heating degree days 59 148  
Cooling Degree Days 4 0  
Month to date cooling degree days 47 30  
Year to date cooling degree days 355 238  
Growing Degree Days 18 (Base 50)    
Moisture  
Dew Point 57 °F    
Average Humidity 70    
Maximum Humidity 84    
Minimum Humidity 56    
Precipitation  
Precipitation 0.00 in 0.04 in 0.95 in (1927)
Month to date precipitation 4.25 0.95  
Year to date precipitation 27.46 26.96  
Sea Level Pressure  
Sea Level Pressure 30.26 in    
Wind  
Wind Speed 5 mph (WSW)    
Max Wind Speed 13 mph    
Max Gust Speed 15 mph    
Visibility 10 miles    
Events      
T = Trace of Precipitation, MM = Missing Value Source: NWS Daily Summary

Daily Weather History Graph

Daily Weather History Graph

Search for Another Location

Airport or City:

Astronomy

Sep. 24, 2019 Rise Set
Actual Time 7:02 AM PDT 7:06 PM PDT
Civil Twilight 6:33 AM PDT 7:35 PM PDT
Nautical Twilight 5:59 AM PDT 8:09 PM PDT
Astronomical Twilight 5:25 AM PDT 8:43 PM PDT
Moon 1:40 AM PDT (9/24) 5:08 PM PDT (9/24)
Length of Visible Light 13h 02m
Length of Day
12h 04m
Waning Crescent, 22% of the Moon is Illuminated
Sep 24
Waning Crescent
Sep 28
New
Oct 5
First Quarter
Oct 13
Full
Oct 21
Last Quarter

Hourly Weather History & Observations

Time (PDT) Temp. Dew Point Humidity Pressure Visibility Wind Dir Wind Speed Gust Speed Precip Events Conditions
12:54 AM 61.0 °F 55.0 °F 81% 30.27 in 10.0 mi South 5.8 mph - N/A   Overcast
1:54 AM 61.0 °F 55.9 °F 83% 30.27 in 10.0 mi South 4.6 mph - N/A   Overcast
2:54 AM 61.0 °F 55.0 °F 81% 30.28 in 10.0 mi South 3.5 mph - N/A   Overcast
3:54 AM 61.0 °F 55.0 °F 81% 30.27 in 10.0 mi SW 4.6 mph - N/A   Overcast
4:54 AM 61.0 °F 55.0 °F 81% 30.28 in 10.0 mi SSW 5.8 mph - N/A   Overcast
5:54 AM 61.0 °F 55.0 °F 81% 30.28 in 10.0 mi SSW 5.8 mph - N/A   Overcast
6:36 AM 61.0 °F 55.0 °F 81% 30.29 in 10.0 mi SW 4.6 mph - N/A   Overcast
6:54 AM 61.0 °F 55.0 °F 81% 30.30 in 10.0 mi WSW 5.8 mph - N/A   Overcast
7:01 AM 61.0 °F 55.0 °F 81% 30.30 in 10.0 mi SW 5.8 mph - N/A   Overcast
7:54 AM 61.0 °F 55.0 °F 81% 30.29 in 10.0 mi SSW 4.6 mph - N/A   Overcast
8:54 AM 63.0 °F 55.9 °F 78% 30.29 in 10.0 mi South 6.9 mph - N/A   Overcast
9:54 AM 64.9 °F 55.0 °F 70% 30.30 in 10.0 mi Calm Calm - N/A   Overcast
10:54 AM 66.9 °F 57.0 °F 70% 30.30 in 10.0 mi SW 4.6 mph - N/A   Overcast
12:28 PM 71.1 °F 59.0 °F 66% 30.29 in 10.0 mi South 6.9 mph - N/A   Overcast
12:54 PM 72.0 °F 60.1 °F 66% 30.29 in 10.0 mi Calm Calm - N/A   Mostly Cloudy
1:54 PM 73.0 °F 61.0 °F 66% 30.27 in 10.0 mi North 5.8 mph - N/A   Mostly Cloudy
2:54 PM 75.9 °F 61.0 °F 60% 30.25 in 10.0 mi NNE 4.6 mph - N/A   Mostly Cloudy
3:54 PM 77.0 °F 60.1 °F 56% 30.24 in 10.0 mi NE 5.8 mph - N/A   Scattered Clouds
4:54 PM 75.9 °F 60.1 °F 58% 30.23 in 10.0 mi North 10.4 mph - N/A   Partly Cloudy
5:54 PM 73.9 °F 60.1 °F 62% 30.22 in 10.0 mi NNE 9.2 mph - N/A   Partly Cloudy
6:54 PM 70.0 °F 60.1 °F 71% 30.22 in 10.0 mi North 5.8 mph - N/A   Partly Cloudy
7:54 PM 66.9 °F 59.0 °F 76% 30.23 in 10.0 mi North 6.9 mph - N/A   Partly Cloudy
8:54 PM 62.1 °F 57.0 °F 84% 30.23 in 10.0 mi North 4.6 mph - N/A   Clear
9:54 PM 61.0 °F 57.0 °F 87% 30.22 in 10.0 mi North 6.9 mph - N/A   Clear
10:54 PM 60.1 °F 57.0 °F 90% 30.23 in 10.0 mi NNE 3.5 mph - N/A   Clear
11:54 PM 57.9 °F 55.0 °F 90% 30.23 in 10.0 mi North 4.6 mph - N/A   Clear